This demonstration page uses our WeatherBlox Daily Observations layout. Learn more.

Left ArrowRight Arrow

38.20091, -84.87328

Hourly Observations for February 28, 2020

Temp ( °F °C ) Dew Point ( °F °C ) Humidity (%) Winds ( mph kmh ) Pressure ( in mb ) Visibility ( mi km ) Precip ( " mm )
12:53 am 00:53 Cloudy 33 0.6 21 -6.1 61 61 SW 8 13 30.07 1018 10 16 0.00 0.00
1:53 am 01:53 Cloudy 34 1.1 21 -6.1 59 59 SW 8 13 30.05 1018 10 16 0.00 0.00
2:53 am 02:53 Cloudy 33 0.6 22 -5.6 64 64 SW 9 15 30.04 1017 10 16 0.00 0.00
3:53 am 03:53 Cloudy 33 0.6 22 -5.6 64 64 SW 7 11 30.02 1017 10 16 0.00 0.00
4:53 am 04:53 Cloudy 34 1.1 23 -5 64 64 WSW 5 7 30.01 1016 10 16 0.00 0.00
5:53 am 05:53 Cloudy 35 1.7 23 -5 61 61 WNW 5 7 30.02 1017 10 16 0.00 0.00
6:53 am 06:53 Cloudy 34 1.1 24 -4.4 67 67 W 3 6 30.02 1017 10 16 0.00 0.00
7:53 am 07:53 Sunny 33 0.6 25 -3.9 72 72 W 3 6 30.03 1017 10 16 0.00 0.00
8:50 am 08:50 Mostly Cloudy 34 1 27 -3 75 75 WNW 8 13 30.08 1019 10 16 0.00 0.00
8:53 am 08:53 Partly Cloudy 34 1.1 26 -3.3 73 73 WNW 13 20 30.06 1018 10 16 0.00 0.00
9:53 am 09:53 Sunny 37 2.8 23 -5 57 57 VRB 5 7 30.06 1018 10 16 0.00 0.00
10:53 am 10:53 Sunny 40 4.4 19 -7.2 43 43 WNW 8 13 30.06 1018 10 16 0.00 0.00
11:53 am 11:53 Cloudy 41 5 15 -9.4 35 35 WNW 8 13 30.06 1018 10 16 0.00 0.00
12:53 pm 12:53 Cloudy 39 3.9 15 -9.4 38 38 NW 16 26 30.05 1018 10 16 0.00 0.00
1:53 pm 13:53 Cloudy 40 4.4 17 -8.3 40 40 W 10 17 30.04 1017 10 16 0.00 0.00
2:53 pm 14:53 Cloudy 41 5 17 -8.3 38 38 W 5 7 30.00 1016 10 16 0.00 0.00
3:53 pm 15:53 Cloudy 41 5 18 -7.8 39 39 W 10 17 30.01 1016 10 16 0.00 0.00
4:53 pm 16:53 Cloudy 40 4.4 19 -7.2 43 43 W 12 19 30.01 1016 10 16 0.00 0.00
5:53 pm 17:53 Cloudy 37 2.8 24 -4.4 59 59 NW 13 20 30.04 1017 10 16 0.00 0.00
6:48 pm 18:48 Cloudy with Light Snow 34 1 28 -2 81 81 NNW 7 11 30.08 1019 3 4 0.00 0.00
6:53 pm 18:53 Cloudy with Light Snow 33 0.6 28 -2.2 82 82 NNW 7 11 30.06 1018 4 6 0.00 0.00
7:06 pm 19:06 Cloudy with Light Snow 33 0.6 29 -1.7 85 85 NNW 7 11 30.08 1019 2 3 0.00 0.00
7:25 pm 19:25 Cloudy with Light Snow 32 0 29 -1.7 88 88 NNW 5 7 30.08 1019 2 3 0.00 0.00
7:43 pm 19:43 Cloudy with Light Snow 32 0 29 -1.7 88 88 NNW 7 11 30.09 1019 3 5 0.00 0.00
7:50 pm 19:50 Cloudy with Light Snow 32 0 28 -2 87 87 NW 7 11 30.10 1019 2 3 0.00 0.00
7:53 pm 19:53 Cloudy with Light Snow 32 0 29 -1.7 88 88 NW 5 7 30.07 1018 2 2 0.00 0.00
8:00 pm 20:00 Cloudy with Light Snow 32 0 29 -1.7 88 88 NW 3 6 30.10 1019 1 1 0.00 0.00
8:07 pm 20:07 Cloudy with Light Snow 32 0 29 -1.7 88 88 W 3 6 30.10 1019 1 1 0.00 0.00
8:11 pm 20:11 Cloudy with Light Snow 32 0 29 -1.7 88 88 W 5 7 30.10 1019 1 2 0.00 0.00
8:19 pm 20:19 Cloudy with Light Snow 32 0 29 -1.7 88 88 W 5 7 30.10 1019 3 5 0.00 0.00
8:28 pm 20:28 Cloudy 32 0 29 -1.7 88 88 WNW 6 9 30.10 1019 7 11 0.00 0.00
8:42 pm 20:42 Cloudy with Light Snow 32 0 29 -1.7 88 88 W 6 9 30.10 1019 4 6 0.00 0.00
8:49 pm 20:49 Cloudy 32 0 28 -2 87 87 W 6 9 30.10 1019 8 13 0.00 0.00
8:53 pm 20:53 Cloudy 32 0 28 -2.2 85 85 W 5 7 30.08 1019 9 14 0.00 0.00
9:01 pm 21:01 Cloudy 32 0 28 -2.2 85 85 VRB 3 6 30.10 1019 9 14 0.00 0.00
9:11 pm 21:11 Cloudy 32 0 28 -2.2 85 85 W 5 7 30.10 1019 8 13 0.00 0.00
9:26 pm 21:26 Cloudy with Light Snow 32 0 28 -2.2 85 85 W 5 7 30.10 1019 6 10 0.00 0.00
9:53 pm 21:53 Cloudy 32 0 28 -2.2 85 85 VRB 5 7 30.08 1019 9 14 0.00 0.00
9:57 pm 21:57 Cloudy 32 0 28 -2.2 85 85 WNW 5 7 30.10 1019 9 14 0.00 0.00
10:14 pm 22:14 Cloudy 32 0 28 -2.2 85 85 WNW 6 9 30.11 1020 9 14 0.00 0.00
10:53 pm 22:53 Cloudy 32 0 27 -2.8 82 82 NW 10 17 30.09 1019 10 16 0.00 0.00
11:09 pm 23:09 Mostly Cloudy 31 -0.6 26 -3.3 82 82 WNW 7 11 30.12 1020 10 16 0.00 0.00
11:53 pm 23:53 Cloudy 31 -0.6 25 -3.9 79 79 WNW 5 7 30.09 1019 10 16 0.00 0.00

Powered by AerisWeather